Location: Campillo
(40.8621°N, 4.2488°W)
Time: 12:43:54
(UTC+00:00)

JB-3 - Pass Details

Date: 11 May 2021
Orbit: 524 x 590 km, 97.3° (Epoch: 14 June)

Event Time Altitude Azimuth Distance (km) Brightness Sun altitude
Rises 21:16:23 0° 17° (NNE) 2,702 8.2 -18.1°
Reaches altitude 10° 21:18:35 10° 23° (NNE) 1,797 7.2 -18.4°
Maximum altitude 21:22:20 48° 99° (E) 703 4.5 -18.9°
Enters shadow 21:22:30 47° 107° (ESE) 706 4.4 -18.9°
